DW2363 Weather Reports


time (UTC)temp
C
wind
direction
speed
KPH
gust
KPH
rain 1hr
cm
rain 24hr
cm
rain mn
cm
humidity
%
barometer
mb
20260509211704 23 188 3.2 8.0 0.00 0.00 0.00 63 1013.2
20260509211203 23 155 3.2 8.0 0.00 0.00 0.00 64 1013.4
20260509210703 23 168 3.2 8.0 0.00 0.00 0.00 63 1013.4
20260509210203 23 131 3.2 9.7 0.00 0.00 0.00 62 1013.4
20260509205704 23 184 1.6 9.7 0.00 0.00 0.00 63 1013.4
20260509205204 23 136 1.6 9.7 0.00 0.00 0.00 62 1013.5
20260509204704 23 164 3.2 11.3 0.00 0.00 0.00 64 1013.4
20260509204211 23 128 1.6 14.5 0.00 0.00 0.00 65 1013.5
20260509204204 23 115 1.6 11.3 0.00 0.00 0.00 66 1013.5
20260509203203 23 172 3.2 14.5 0.00 0.00 0.00 65 1013.4
20260509202704 23 191 3.2 16.1 0.00 0.00 0.00 65 1013.5
20260509202203 23 188 3.2 16.1 0.00 0.00 0.00 65 1013.5
20260509201704 23 215 1.6 9.7 0.00 0.00 0.00 66 1013.5
20260509201204 23 167 1.6 6.4 0.00 0.00 0.00 66 1013.6
20260509200706 22 130 1.6 6.4 0.00 0.00 0.00 66 1013.5
20260509200702 23 160 1.6 6.4 0.00 0.00 0.00 64 1013.5
20260509195701 22 239 1.6 11.3 0.00 0.00 0.00 63 1013.6
20260509195202 23 126 3.2 11.3 0.00 0.00 0.00 66 1013.6
20260509194701 22 218 3.2 11.3 0.00 0.00 0.00 66 1013.6
20260509194201 22 157 3.2 11.3 0.00 0.00 0.00 68 1013.6
20260509193702 22 169 3.2 9.7 0.00 0.00 0.00 67 1013.7
20260509193206 22 75 3.2 11.3 0.00 0.00 0.00 68 1013.7
20260509193202 22 153 1.6 9.7 0.00 0.00 0.00 68 1013.7
20260509192159 22 136 4.8 16.1 0.00 0.00 0.00 67 1013.7
20260509191659 23 105 4.8 16.1 0.00 0.00 0.00 67 1013.7
20260509191203 22 20 4.8 12.9 0.00 0.00 0.00 68 1013.8
20260509191159 22 30 4.8 9.7 0.00 0.00 0.00 67 1013.8
20260509190159 22 29 4.8 12.9 0.00 0.00 0.00 68 1013.9
20260509185705 22 34 4.8 14.5 0.00 0.00 0.00 69 1013.8
20260509185659 22 34 6.4 14.5 0.00 0.00 0.00 68 1013.8
20260509185159 22 64 6.4 14.5 0.00 0.00 0.00 68 1013.8
20260509184200 22 355 4.8 14.5 0.00 0.00 0.00 68 1014.0
20260509183658 21 74 4.8 12.9 0.00 0.00 0.00 69 1013.9
20260509183157 21 78 4.8 11.3 0.00 0.00 0.00 70 1014.0
20260509182656 21 47 4.8 12.9 0.00 0.00 0.00 70 1013.9
20260509182201 21 348 4.8 12.9 0.00 0.00 0.00 70 1014.0
20260509182157 21 12 4.8 12.9 0.00 0.00 0.00 70 1013.9
20260509181201 21 47 3.2 9.7 0.00 0.00 0.00 69 1014.0
20260509181157 21 21 3.2 9.7 0.00 0.00 0.00 70 1014.0
20260509180202 21 52 3.2 11.3 0.00 0.00 0.00 71 1014.1
20260509180157 21 40 3.2 8.0 0.00 0.00 0.00 71 1014.0
20260509175158 21 80 3.2 11.3 0.00 0.00 0.00 72 1014.0
20260509174701 20 68 4.8 9.7 0.00 0.00 0.00 73 1014.0
20260509174657 21 103 3.2 8.0 0.00 0.00 0.00 73 1014.0
20260509173655 20 24 6.4 9.7 0.00 0.00 0.00 73 1014.1
20260509173200 20 46 6.4 11.3 0.00 0.00 0.00 71 1013.9
20260509173155 20 20 6.4 11.3 0.00 0.00 0.00 73 1014.0
20260509172155 20 59 4.8 9.7 0.00 0.00 0.00 70 1013.9
20260509171656 20 59 4.8 9.7 0.00 0.00 0.00 70 1013.8
20260509171153 19 52 6.4 9.7 0.00 0.00 0.00 71 1013.8
20260509170654 20 43 6.4 9.7 0.00 0.00 0.00 71 1013.7
20260509170153 20 41 4.8 9.7 0.00 0.00 0.00 65 1013.7
20260509165653 20 28 3.2 9.7 0.00 0.00 0.00 62 1013.6
20260509165153 20 57 3.2 8.0 0.00 0.00 0.00 65 1013.6
20260509164652 20 34 3.2 8.0 0.00 0.00 0.00 64 1013.6
20260509164153 20 40 3.2 8.0 0.00 0.00 0.00 67 1013.6
20260509163653 20 16 3.2 8.0 0.00 0.00 0.00 66 1013.6
20260509163152 20 51 3.2 8.0 0.00 0.00 0.00 68 1013.6
20260509162652 20 51 4.8 8.0 0.00 0.00 0.00 69 1013.6
20260509162153 20 28 4.8 9.7 0.00 0.00 0.00 63 1013.6
20260509161653 21 55 4.8 9.7 0.00 0.00 0.00 65 1013.6
20260509161153 20 78 4.8 9.7 0.00 0.00 0.00 67 1013.7
20260509160653 20 77 3.2 9.7 0.00 0.00 0.00 66 1013.6
20260509160152 20 38 4.8 9.7 0.00 0.00 0.00 62 1013.7
20260509155655 20 34 4.8 9.7 0.00 0.00 0.00 62 1013.6
20260509155651 20 47 4.8 9.7 0.00 0.00 0.00 62 1013.6
20260509154648 20 55 4.8 9.7 0.00 0.00 0.00 64 1013.7
20260509154149 20 96 4.8 9.7 0.00 0.00 0.00 64 1013.7
20260509153649 20 96 4.8 11.3 0.00 0.00 0.00 65 1013.7
20260509153151 20 95 4.8 11.3 0.00 0.00 0.00 63 1013.6
20260509153147 20 102 3.2 8.0 0.00 0.00 0.00 66 1013.7
20260509152152 19 49 4.8 8.0 0.00 0.00 0.00 65 1013.6
20260509152147 19 55 4.8 8.0 0.00 0.00 0.00 62 1013.7
20260509151147 19 42 4.8 8.0 0.00 0.00 0.00 62 1013.5
20260509150647 19 19 4.8 8.0 0.00 0.00 0.00 63 1013.6
20260509150146 19 34 4.8 9.7 0.00 0.00 0.00 66 1013.6
20260509145647 18 39 6.4 9.7 0.00 0.00 0.00 65 1013.6
20260509145146 18 53 6.4 9.7 0.00 0.00 0.00 67 1013.6
20260509144646 18 32 6.4 14.5 0.00 0.00 0.00 67 1013.6
20260509144147 18 37 8.0 14.5 0.00 0.00 0.00 68 1013.6
20260509143647 18 32 9.7 14.5 0.00 0.00 0.00 68 1013.6
20260509143146 17 16 11.3 14.5 0.00 0.00 0.00 69 1013.6
20260509142647 18 11 9.7 14.5 0.00 0.00 0.00 68 1013.6
20260509142146 18 0 8.0 14.5 0.00 0.00 0.00 69 1013.5
20260509141646 18 19 9.7 14.5 0.00 0.00 0.00 68 1013.5
20260509141147 18 24 8.0 12.9 0.00 0.00 0.00 69 1013.4
20260509140647 18 26 8.0 12.9 0.00 0.00 0.00 69 1013.4
20260509140146 17 26 9.7 12.9 0.00 0.00 0.00 70 1013.4
20260509135646 17 36 9.7 14.5 0.00 0.00 0.00 69 1013.4
20260509135146 17 31 9.7 14.5 0.00 0.00 0.00 71 1013.4
20260509134646 17 24 9.7 16.1 0.00 0.00 0.00 70 1013.4
20260509134146 17 36 9.7 16.1 0.00 0.00 0.00 73 1013.4
20260509133646 17 28 11.3 17.7 0.00 0.00 0.00 73 1013.2
20260509133146 17 37 12.9 17.7 0.00 0.00 0.00 72 1013.4
20260509132644 17 49 14.5 17.7 0.00 0.00 0.00 74 1013.2
20260509132253 16 30 14.5 17.7 0.00 0.00 0.00 76 1013.0
20260509132149 16 40 16.1 19.3 0.00 0.00 0.00 76 1013.0
20260509132145 16 36 16.1 19.3 0.00 0.00 0.00 75 1013.1
20260509130645 16 32 12.9 17.7 0.00 0.00 0.00 75 1013.0
20260509130145 16 11 14.5 19.3 0.00 0.00 0.00 73 1013.0
20260509125644 17 17 14.5 19.3 0.00 0.00 0.00 72 1013.0
20260509125142 17 49 12.9 17.7 0.00 0.00 0.00 72 1012.9
20260509124642 16 61 11.3 19.3 0.00 0.00 0.00 73 1012.9
20260509124142 16 45 11.3 19.3 0.00 0.00 0.00 75 1012.9
20260509123647 16 58 14.5 19.3 0.00 0.00 0.00 75 1012.9
20260509123643 16 43 14.5 19.3 0.00 0.00 0.00 76 1012.9
20260509123249 16 59 16.1 20.9 0.00 0.00 0.00 78 1012.9
20260509122140 16 51 16.1 20.9 0.00 0.00 0.00 78 1012.8
20260509121639 16 81 17.7 19.3 0.00 0.00 0.00 78 1012.8
20260509121138 16 105 16.1 19.3 0.00 0.00 0.00 79 1012.7
20260509120638 16 99 16.1 19.3 0.00 0.00 0.00 81 1012.8
20260509120136 16 91 16.1 19.3 0.00 0.00 0.00 82 1012.8
20260509115636 16 96 16.1 19.3 0.00 0.00 0.00 82 1012.8
20260509115136 16 96 16.1 22.5 0.00 0.00 0.00 84 1012.9
20260509114636 16 101 16.1 22.5 0.00 0.00 0.00 84 1012.9
20260509114136 16 90 19.3 22.5 0.00 0.00 0.00 83 1012.9
20260509113636 16 93 19.3 22.5 0.00 0.00 0.00 82 1012.8
20260509113140 16 84 17.7 22.5 0.00 0.00 0.00 82 1012.9
20260509113136 16 82 17.7 22.5 0.00 0.00 0.00 82 1012.8
20260509112743 16 74 17.7 22.5 0.00 0.00 0.00 83 1012.8
20260509112241 15 92 16.1 20.9 0.00 0.00 0.00 84 1012.8
20260509111134 15 89 16.1 20.9 0.00 0.00 0.00 85 1012.8
20260509110634 15 71 16.1 20.9 0.00 0.00 0.00 85 1012.9
20260509110134 16 76 17.7 20.9 0.00 0.00 0.00 84 1012.9
20260509105634 16 101 17.7 20.9 0.00 0.00 0.00 83 1012.9
20260509105134 16 105 17.7 20.9 0.00 0.00 0.00 82 1012.9
20260509104634 16 103 17.7 20.9 0.00 0.00 0.00 83 1013.0
20260509104134 16 113 19.3 22.5 0.00 0.00 0.00 83 1012.9
20260509103634 16 101 19.3 22.5 0.00 0.00 0.00 83 1013.0
20260509103132 15 103 17.7 20.9 0.00 0.00 0.00 86 1013.0
20260509102632 15 108 17.7 20.9 0.00 0.00 0.00 86 1013.0
20260509102132 15 109 19.3 20.9 0.00 0.00 0.00 83 1013.0
20260509101632 16 106 17.7 20.9 0.00 0.00 0.00 82 1013.0
20260509101132 16 116 17.7 19.3 0.00 0.00 0.00 82 1013.0
20260509100632 16 115 16.1 19.3 0.00 0.00 0.00 82 1013.0
20260509100131 16 99 14.5 17.7 0.00 0.00 0.00 82 1013.1
20260509095631 15 113 14.5 16.1 0.00 0.00 0.00 82 1013.1
20260509095131 15 82 14.5 16.1 0.00 0.00 0.00 83 1013.2
20260509094631 15 83 14.5 16.1 0.00 0.00 0.00 83 1013.2
20260509094136 16 84 14.5 17.7 0.00 0.00 0.00 81 1013.4
20260509094132 16 87 14.5 16.1 0.00 0.00 0.00 82 1013.2
20260509093738 15 77 16.1 20.9 0.00 0.00 0.00 83 1013.4
20260509092631 15 93 17.7 20.9 0.00 0.00 0.00 83 1013.4
20260509092131 15 98 16.1 20.9 0.00 0.00 0.00 83 1013.4
20260509091631 16 105 16.1 19.3 0.00 0.00 0.00 82 1013.4
20260509091131 16 86 16.1 19.3 0.00 0.00 0.00 80 1013.4
20260509090628 16 82 16.1 19.3 0.00 0.00 0.00 75 1013.4
20260509090128 16 39 16.1 17.7 0.00 0.00 0.00 78 1013.5
20260509085626 16 82 16.1 19.3 0.00 0.00 0.00 76 1013.5
20260509085126 16 96 16.1 19.3 0.00 0.00 0.00 74 1013.5
20260509084626 16 87 14.5 17.7 0.00 0.00 0.00 77 1013.5
20260509084126 16 0 12.9 16.1 0.00 0.00 0.00 79 1013.6
20260509083625 16 348 12.9 16.1 0.00 0.00 0.00 77 1013.6
20260509083125 16 30 12.9 16.1 0.00 0.00 0.00 77 1013.7
20260509082625 16 24 12.9 16.1 0.00 0.00 0.00 78 1013.7
20260509082125 16 23 14.5 17.7 0.00 0.00 0.00 80 1013.7
20260509081626 16 26 14.5 17.7 0.00 0.00 0.00 80 1013.7
20260509081131 16 46 12.9 16.1 0.00 0.00 0.00 80 1013.7
20260509081125 16 37 14.5 17.7 0.00 0.00 0.00 80 1013.8
20260509080125 15 41 9.7 16.1 0.00 0.00 0.00 85 1013.8
20260509075628 15 54 8.0 14.5 0.00 0.00 0.00 86 1014.0
20260509075623 15 58 8.0 14.5 0.00 0.00 0.00 86 1013.9
20260509074623 15 44 9.7 17.7 0.00 0.00 0.00 84 1014.0
20260509074124 15 32 9.7 17.7 0.00 0.00 0.00 84 1014.1
20260509073623 15 35 9.7 16.1 0.00 0.00 0.00 86 1014.0
20260509073124 15 63 9.7 14.5 0.00 0.00 0.00 87 1014.1
20260509072732 15 48 12.9 17.7 0.00 0.00 0.00 86 1014.0
20260509072627 15 68 12.9 17.7 0.00 0.00 0.00 86 1014.0
20260509072623 15 22 11.3 17.7 0.00 0.00 0.00 86 1014.0
20260509071122 15 62 14.5 19.3 0.00 0.00 0.00 86 1014.0
20260509070621 15 49 14.5 19.3 0.00 0.00 0.00 86 1014.1
20260509070121 15 56 14.5 20.9 0.00 0.00 0.00 86 1014.1
20260509065621 15 62 14.5 20.9 0.00 0.00 0.00 86 1014.2
20260509065121 15 68 12.9 19.3 0.00 0.00 0.00 86 1014.3
20260509064621 15 92 14.5 19.3 0.00 0.00 0.00 86 1014.3
20260509064125 15 101 12.9 17.7 0.00 0.00 0.00 85 1014.3
20260509064121 15 91 12.9 17.7 0.00 0.00 0.00 86 1014.3
20260509063121 15 92 12.9 17.7 0.00 0.00 0.00 85 1014.2
20260509062621 15 102 11.3 17.7 0.00 0.00 0.00 85 1014.2
20260509062121 15 71 12.9 17.7 0.00 0.00 0.00 84 1014.2
20260509061619 15 92 12.9 19.3 0.00 0.00 0.00 83 1014.2
20260509061119 15 91 14.5 19.3 0.00 0.00 0.00 82 1014.3
20260509060619 15 90 16.1 19.3 0.00 0.00 0.00 81 1014.3
20260509060119 16 101 17.7 19.3 0.00 0.00 0.00 80 1014.2
20260509055619 16 91 16.1 19.3 0.00 0.00 0.00 78 1014.3
20260509055120 16 92 16.1 19.3 0.00 0.00 0.00 77 1014.3
20260509054623 17 101 17.7 20.9 0.00 0.00 0.00 75 1014.5
20260509054619 16 98 16.1 19.3 0.00 0.00 0.00 77 1014.4
20260509053619 17 89 19.3 20.9 0.00 0.00 0.00 74 1014.4
20260509053116 17 84 19.3 20.9 0.00 0.00 0.00 72 1014.4
20260509052614 17 83 19.3 22.5 0.00 0.00 0.00 72 1014.4
20260509052115 17 134 17.7 22.5 0.00 0.00 0.00 71 1014.4
20260509051615 17 134 16.1 20.9 0.00 0.00 0.00 73 1014.4
20260509051120 17 69 17.7 22.5 0.00 0.00 0.00 74 1014.4
20260509051116 17 51 16.1 20.9 0.00 0.00 0.00 74 1014.5
20260509050115 18 64 19.3 22.5 0.00 0.00 0.00 73 1014.4
20260509045619 18 78 19.3 24.1 0.00 0.00 0.00 74 1014.3
20260509045615 18 80 19.3 24.1 0.00 0.00 0.00 72 1014.3
20260509044615 18 71 19.3 24.1 0.00 0.00 0.00 74 1014.3
20260509044112 18 80 17.7 24.1 0.00 0.00 0.00 73 1014.2
20260509043612 18 65 17.7 22.5 0.00 0.00 0.00 71 1014.2
20260509043113 18 82 17.7 22.5 0.00 0.00 0.00 72 1014.2
20260509042612 18 80 19.3 22.5 0.00 0.00 0.00 70 1014.1
20260509042113 18 34 19.3 22.5 0.00 0.00 0.00 69 1014.1
20260509041613 18 49 19.3 22.5 0.00 0.00 0.00 69 1014.0
20260509041110 18 5 17.7 22.5 0.00 0.00 0.00 70 1014.0
20260509040611 18 37 17.7 20.9 0.00 0.00 0.00 72 1014.0
20260509040111 18 42 14.5 20.9 0.00 0.00 0.00 73 1013.9
20260509035611 18 33 11.3 14.5 0.00 0.00 0.00 78 1014.0
20260509035111 18 57 11.3 12.9 0.00 0.00 0.00 77 1014.0
20260509034611 18 57 11.3 14.5 0.00 0.00 0.00 75 1014.0
20260509034111 18 62 12.9 14.5 0.00 0.00 0.00 73 1013.9
20260509033611 18 62 11.3 14.5 0.00 0.00 0.00 72 1013.9
20260509033111 18 57 11.3 16.1 0.00 0.00 0.00 72 1013.9
20260509032611 19 64 12.9 16.1 0.00 0.00 0.00 71 1013.8
20260509032111 19 74 12.9 16.1 0.00 0.00 0.00 71 1013.8
20260509031611 19 89 14.5 16.1 0.00 0.00 0.00 73 1013.7
20260509031110 19 95 12.9 16.1 0.00 0.00 0.00 73 1013.7
20260509030612 19 98 11.3 14.5 0.00 0.00 0.00 74 1013.7
20260509030111 19 103 11.3 12.9 0.00 0.00 0.00 74 1013.7
20260509025611 19 103 11.3 12.9 0.00 0.00 0.00 75 1013.6
20260509025115 19 107 9.7 11.3 0.00 0.00 0.00 75 1013.6
20260509025111 19 108 9.7 12.9 0.00 0.00 0.00 75 1013.6
20260509024111 19 108 8.0 11.3 0.00 0.00 0.00 75 1013.6
20260509023611 19 102 8.0 11.3 0.00 0.00 0.00 75 1013.6
20260509023111 19 102 6.4 9.7 0.00 0.00 0.00 75 1013.6
20260509022610 19 105 6.4 11.3 0.00 0.00 0.00 76 1013.5
20260509022115 18 104 3.2 6.4 0.00 0.00 0.00 77 1013.5
20260509022111 19 105 4.8 11.3 0.00 0.00 0.00 76 1013.5
20260509021111 18 94 1.6 6.4 0.00 0.00 0.00 77 1013.6
20260509020610 18 109 1.6 4.8 0.00 0.00 0.00 77 1013.5
20260509020108 19 109 3.2 12.9 0.00 0.00 0.00 77 1013.7
20260509015608 19 109 4.8 12.9 0.00 0.00 0.00 76 1013.5
20260509015109 20 92 6.4 12.9 0.00 0.00 0.00 73 1013.5
20260509015105 20 109 6.4 12.9 0.00 0.00 0.00 74 1013.4
20260509014104 20 94 4.8 11.3 0.00 0.00 0.00 73 1013.4
20260509013608 20 74 4.8 9.7 0.00 0.00 0.00 73 1013.5
20260509013604 20 86 4.8 11.3 0.00 0.00 0.00 73 1013.4
20260509013212 20 71 4.8 9.7 0.00 0.00 0.00 72 1013.5
20260509012712 20 67 3.2 8.0 0.00 0.00 0.00 73 1013.4
20260509011605 20 67 3.2 8.0 0.00 0.00 0.00 73 1013.4
20260509011104 20 77 3.2 6.4 0.00 0.00 0.00 73 1013.5
20260509010604 20 84 4.8 6.4 0.00 0.00 0.00 74 1013.5
20260509010104 20 86 6.4 11.3 0.00 0.00 0.00 73 1013.2
20260509005605 20 105 8.0 11.3 0.00 0.00 0.00 73 1013.4
20260509005104 20 102 8.0 11.3 0.00 0.00 0.00 71 1013.4
20260509004604 20 114 4.8 11.3 0.00 0.00 0.00 70 1013.4
20260509004104 21 108 3.2 9.7 0.00 0.00 0.00 69 1013.6
20260509003608 22 43 0.0 3.2 0.00 0.00 0.00 66 1013.5
20260509003604 21 105 0.0 4.8 0.00 0.00 0.00 67 1013.5
20260509002604 22 43 0.0 3.2 0.00 0.00 0.00 66 1013.4
20260509002102 22 43 0.0 3.2 0.00 0.00 0.00 67 1013.4
20260509001606 22 43 1.6 4.8 0.00 0.00 0.00 68 1013.6
20260509001602 22 43 0.0 3.2 0.00 0.00 0.00 67 1013.5
20260509000601 22 43 1.6 4.8 0.00 0.00 0.00 68 1013.6
20260509000106 23 14 1.6 4.8 0.00 0.00 0.00 66 1013.6
20260508235102 23 53 1.6 4.8 0.00 0.00 0.00 65 1013.7
20260508234602 23 242 1.6 4.8 0.00 0.00 0.00 65 1013.7
20260508234102 23 171 1.6 6.4 0.00 0.00 0.00 64 1013.6
20260508233601 23 200 1.6 6.4 0.00 0.00 0.00 64 1013.6
20260508233100 23 45 3.2 8.0 0.00 0.00 0.00 65 1013.6
20260508232606 22 296 4.8 11.3 0.00 0.00 0.00 64 1013.7
20260508232602 23 313 3.2 11.3 0.00 0.00 0.00 62 1013.6
20260508231601 23 286 4.8 11.3 0.00 0.00 0.00 63 1013.7
20260508231059 23 267 3.2 11.3 0.00 0.00 0.00 61 1013.7
20260508230602 24 316 1.6 8.0 0.00 0.00 0.00 60 1013.8
20260508230100 24 237 1.6 8.0 0.00 0.00 0.00 62 1013.9
20260508225602 25 118 1.6 6.4 0.00 0.00 0.00 61 1013.9
20260508225100 24 98 0.0 4.8 0.00 0.00 0.00 62 1014.0
20260508224602 24 101 1.6 4.8 0.00 0.00 0.00 63 1014.0
20260508224058 24 161 1.6 6.4 0.00 0.00 0.00 63 1014.1
20260508223558 23 268 1.6 8.0 0.00 0.00 0.00 63 1014.1
20260508223058 24 43 1.6 8.0 0.00 0.00 0.00 65 1014.2
20260508222557 23 314 3.2 9.7 0.00 0.00 0.00 65 1014.2
20260508222102 23 340 3.2 9.7 0.00 0.00 0.00 67 1014.3
20260508222058 23 323 3.2 9.7 0.00 0.00 0.00 65 1014.3
20260508221057 23 14 3.2 9.7 0.00 0.00 0.00 67 1014.4
20260508220558 22 54 3.2 9.7 0.00 0.00 0.00 68 1014.4
20260508220058 21 19 3.2 9.7 0.00 0.00 0.00 73 1014.4
20260508215557 20 315 4.8 12.9 0.00 0.00 0.00 74 1014.5
20260508215102 20 259 4.8 16.1 0.00 0.00 0.00 74 1014.6
20260508215058 20 293 4.8 12.9 0.00 0.00 0.00 75 1014.6
20260508214058 20 253 4.8 16.1 0.00 0.00 0.00 72 1014.8
20260508213557 21 269 6.4 16.1 0.00 0.00 0.00 70 1014.8
20260508213057 21 265 4.8 16.1 0.00 0.00 0.00 70 1014.8
20260508212557 21 304 4.8 12.9 0.00 0.00 0.00 70 1014.9